Flag for Germany Weather past 2 weeks in Ludwigsfelde, Brandenburg, Germany

Now
82 °F

Scattered clouds.


Feels Like: 81 °F
Forecast: 68 / 83 °F
Wind: 6 mph from Northeast

Location: Potsdam

Current Time: Jul 22, 2014 at 2:09:33 PM

Latest Report: Jul 22, 2014 at 1:00 PM


Visibility: 22 mi

Pressure: 30.01 "Hg

Humidity: 41%

Dew point: 56 °F

Location of LudwigsfeldeLocation

Historic Weather in Ludwigsfelde — Graph

°F

Ludwigsfelde temperature yesterday

Maximum temperature yesterday: 86 °F (at 3:00 PM)
Minimum temperature yesterday: 70 °F (at 5:00 AM)
Average temperature yesterday: 77 °F

Past Weeks' High & Low Weather Summary

 TemperatureHumidityPressure
High93 °F (Jul 20, 4:00 PM)98% (Jul 8, 5:00 AM)30.19 "Hg (Jul 8, 5:00 AM)
Low54 °F (Jul 13, 5:00 AM)24% (Jul 20, 4:00 PM)29.61 "Hg (Jul 8, 7:00 PM)
Average70 °F72%29.92 "Hg
* Reported Jul 7 1:00 PM — Jul 22 1:00 PM, Ludwigsfelde, Weather by CustomWeather, © 2014

Note: Actual official high and low records may vary slightly from our data, if they occured in-between our weather recording intervals... More about our weather records

Advertising

Ludwigsfelde weather history for previous 24 hours

 ConditionsComfort  
Time TempWeatherWind HumidityBarometerVisibility
1:00 PM
Jul 22
82 °FScattered clouds.6 mph41%30.01 "Hg22 mi
12:00 PM81 °FPassing clouds.5 mph48%30.01 "Hg22 mi
11:00 AM78 °FPassing clouds.5 mph56%30.01 "Hg22 mi
10:00 AM75 °FPassing clouds.5 mph64%30.01 "Hg22 mi
9:00 AM71 °FPassing clouds.3 mph70%30.00 "Hg19 mi
8:00 AM67 °FScattered clouds.3 mph83%29.99 "Hg22 mi
7:00 AM65 °FScattered clouds.5 mph86%29.98 "Hg22 mi
6:00 AM64 °FScattered clouds.5 mph87%29.96 "Hg19 mi
5:00 AM64 °FPassing clouds.5 mph86%29.94 "Hg19 mi
4:00 AM65 °FPassing clouds.5 mph83%29.93 "Hg22 mi
3:00 AM67 °FPassing clouds.5 mph79%29.93 "Hg22 mi
2:00 AM68 °FPassing clouds.5 mph76%29.93 "Hg22 mi
1:00 AM69 °FPassing clouds.3 mph72%29.92 "Hg22 mi
12:00 AM71 °FPassing clouds.6 mph66%29.90 "Hg22 mi
11:00 PM
Jul 21
73 °FPassing clouds.6 mph64%29.90 "Hg22 mi
10:00 PM76 °FOvercast.6 mph61%29.88 "Hg22 mi
9:00 PM78 °FOvercast.6 mph56%29.86 "Hg25 mi
8:00 PM79 °FOvercast.5 mph49%29.85 "Hg25 mi
7:00 PM81 °FOvercast.5 mph49%29.84 "Hg22 mi
6:00 PM84 °FOvercast.5 mph44%29.83 "Hg17 mi
5:00 PM85 °FOvercast.5 mph42%29.82 "Hg19 mi
4:00 PM85 °FOvercast.6 mph42%29.82 "Hg14 mi
3:00 PM86 °FOvercast.7 mph40%29.81 "Hg17 mi
2:00 PM84 °FOvercast.8 mph45%29.81 "Hg22 mi
Weather by CustomWeather, © 2014

See weather overviewHow to use our weather pages